カタログに戻る

ONEWEB-0210

運用中通信PO
NORAD 48787·PAYLOAD·🇬🇧 United Kingdom

打ち上げ May 28, 2021 から Vostochny Cosmodrome

Loading…

次のパス (今後24時間)

TLE

最新Source: CelesTrak SupGP

元期: Sep 14, 2026, 23:35 UTC

1 48787C 21045W   26257.98317546 -.00001869  00000+0 -49707-2 0  2572
2 48787  87.8985 241.2867 0002765  75.8144 319.3870 13.15547897    12

AllMySatでONEWEB-0210をリアルタイム追跡

Download on the App Store